Theta_e
312 312 313 312 313 315 319 322 320 319 320 316 316 318 317 318 319 319 319 319 319 318 317 316 316 315 317 317 318 318 318 318 319 318 317 320 320 318 319 318 319 318 322 329 331 332 332 333 334 334 334 334 335 336 336 336 335 335 334 333 332 331 330 329 330 329 327 325 322 319 318 319 319 319 319 318 321 326 328 328 329 331 332 332 331 330 332 333 331 328 326 325 324 324 324 324 323
313 313 313 314 316 321 322 321 320 317 316 315 316 318 317 317 318 319 319 319 319 317 316 316 316 316 317 318 317 318 319 319 319 319 318 319 319 319 319 318 319 318 322 328 331 332 332 332 333 333 334 334 334 335 336 336 335 335 333 333 332 330 329 329 329 329 327 325 321 319 318 319 319 320 321 319 320 324 326 327 327 329 330 330 330 330 333 334 332 329 326 326 325 325 327 327 326
315 316 316 318 321 322 323 321 318 315 314 313 315 318 317 317 318 318 318 318 317 316 317 317 317 317 317 319 318 319 319 319 319 319 318 319 320 319 319 318 318 319 321 327 330 331 331 331 332 332 332 333 334 334 336 337 336 334 334 333 332 331 330 329 329 328 326 324 321 319 318 319 320 321 321 321 321 322 323 325 326 328 329 329 329 331 334 334 333 330 326 324 322 322 324 326 327
317 318 319 320 322 322 322 321 319 315 313 313 314 317 317 318 318 318 318 316 316 316 317 318 318 318 318 319 319 319 319 319 319 319 320 319 319 318 318 318 318 319 321 326 329 330 331 331 332 332 331 331 334 335 335 336 335 335 334 334 332 331 331 330 329 328 326 324 321 319 319 319 321 322 322 323 322 322 322 322 323 324 328 330 328 331 334 334 333 330 326 321 319 319 320 320 322
318 319 319 320 323 322 321 320 319 316 314 315 314 316 317 317 317 317 317 316 316 317 317 318 319 318 318 318 318 319 319 319 318 318 319 318 317 316 317 318 318 319 320 324 328 329 330 330 331 331 331 331 333 334 334 335 335 335 335 335 334 332 330 329 329 328 327 324 321 319 319 319 321 322 323 325 324 323 321 321 321 321 326 329 329 331 332 333 333 332 328 325 322 323 322 321 320
318 319 318 319 321 319 320 318 317 317 316 317 316 317 317 316 316 316 317 317 317 317 317 317 318 318 318 318 317 318 318 318 318 318 318 317 316 315 316 317 318 319 320 323 327 329 330 330 330 330 331 331 333 333 333 334 335 336 335 335 335 332 329 328 328 329 328 325 322 320 319 320 321 323 325 326 325 324 322 321 321 321 323 326 329 331 329 331 332 331 330 329 328 327 326 325 323
318 319 319 320 320 320 321 317 316 318 316 317 317 317 317 316 315 314 317 318 317 317 317 317 317 318 317 317 317 318 318 318 318 318 318 317 316 315 316 316 317 318 319 321 325 328 329 330 330 330 330 331 334 334 333 334 335 336 335 335 334 332 329 327 328 329 329 329 327 322 320 321 322 325 328 328 327 325 324 322 321 321 322 324 328 330 328 329 329 329 328 326 325 325 323 322 320
317 318 320 321 322 322 321 318 318 319 317 315 316 317 317 317 314 315 318 318 317 317 317 317 317 317 316 316 318 318 318 318 318 318 318 317 316 315 315 316 316 317 318 320 322 325 327 329 330 330 330 331 334 335 334 334 334 335 334 334 333 331 328 327 328 329 331 332 331 326 321 322 326 329 329 329 328 326 325 323 323 324 324 325 327 329 329 328 327 324 321 317 315 314 314 314 313
315 317 320 321 321 321 319 319 319 318 317 316 316 317 316 315 314 315 318 318 317 316 316 317 317 316 316 317 318 318 317 317 317 317 317 317 315 315 315 315 316 316 317 319 320 322 325 328 329 330 330 331 333 335 335 334 334 334 333 333 333 331 328 327 328 330 332 332 331 328 325 325 329 331 330 329 329 328 327 324 325 327 327 327 328 328 328 326 322 319 314 310 308 308 309 309 310
316 317 321 322 320 318 317 318 319 318 317 316 316 316 315 314 314 315 317 317 316 316 316 316 317 317 317 318 318 317 316 315 315 316 316 316 315 315 315 315 315 316 316 318 319 320 322 325 327 329 330 330 331 334 336 334 334 334 333 333 332 331 330 329 328 330 331 330 330 329 327 328 329 329 330 329 328 328 328 326 325 327 328 327 325 323 323 321 319 318 312 308 307 308 309 309 310
318 317 319 320 318 316 316 317 318 318 317 316 316 315 315 313 314 315 316 316 315 315 316 316 317 317 316 317 317 316 315 315 315 315 315 316 315 314 315 315 315 315 315 317 318 319 320 322 324 326 328 329 329 332 335 334 334 334 334 333 333 330 329 329 328 330 330 330 329 328 328 328 329 329 330 329 328 327 327 328 327 326 327 325 322 320 320 319 321 321 312 306 307 308 309 310 310
318 319 318 318 317 316 317 317 318 318 317 316 316 315 314 313 314 316 316 316 315 316 316 316 317 316 316 317 316 315 314 315 314 314 315 315 315 315 314 315 315 315 316 315 317 318 319 320 321 323 325 327 328 330 333 334 334 333 334 333 333 331 329 328 328 329 330 329 328 328 327 329 331 331 331 328 328 327 326 329 329 328 327 325 323 322 322 321 323 322 312 306 306 307 309 309 308
318 319 317 317 317 318 318 318 318 318 317 316 316 315 314 313 315 316 316 316 316 316 316 315 315 316 317 317 315 314 315 314 314 314 314 315 315 315 315 314 315 315 315 315 316 317 318 319 319 320 322 324 326 328 329 332 333 333 334 333 333 331 330 329 327 328 329 329 329 328 327 328 330 330 329 327 328 328 327 328 330 331 330 329 328 327 325 324 324 322 313 307 305 306 308 307 306
317 317 317 317 316 317 317 318 318 317 317 316 315 314 314 314 314 314 315 316 316 316 315 314 315 316 316 316 316 315 315 314 314 314 314 314 315 315 315 315 315 315 315 315 316 316 316 317 318 319 319 321 323 325 327 329 331 332 334 333 332 331 331 330 327 327 329 329 329 328 327 328 328 328 328 326 327 328 326 327 329 330 332 331 331 330 328 326 325 323 315 308 304 305 306 305 304
315 315 318 318 316 316 316 318 318 318 317 316 315 314 314 314 314 314 314 316 316 316 315 315 315 315 315 315 316 315 314 314 313 314 314 314 314 315 316 316 316 315 315 315 316 316 316 316 317 318 318 319 320 322 325 327 328 330 333 334 333 332 331 330 328 328 329 329 329 328 328 327 328 327 327 326 326 327 326 327 327 328 331 331 331 331 330 327 326 324 316 309 304 304 304 304 303
314 315 318 316 316 316 316 317 318 317 317 316 315 314 315 315 315 315 314 315 315 315 315 315 314 314 314 313 314 313 314 314 313 313 314 314 314 315 315 316 316 316 315 314 315 315 316 316 316 317 317 318 318 322 326 328 328 327 330 332 334 334 331 330 328 328 329 328 328 328 328 327 327 327 328 327 327 328 327 327 326 326 327 328 329 329 328 325 325 323 315 309 306 303 303 303 302
314 316 317 314 315 316 316 318 317 317 316 316 314 314 316 316 316 315 315 315 315 315 314 314 313 313 313 312 313 313 313 313 313 313 313 314 314 314 315 315 316 316 316 315 315 315 316 316 316 317 317 317 317 320 326 329 329 326 327 330 332 334 334 332 329 328 328 328 328 327 327 327 326 326 327 327 327 328 329 328 327 326 326 326 327 326 325 324 325 323 315 311 307 304 303 302 302
316 317 316 314 315 315 316 318 317 316 317 316 315 314 316 316 316 315 315 315 314 315 314 313 313 312 312 312 312 312 313 313 313 313 313 314 313 314 314 315 315 315 316 316 315 315 315 315 316 316 316 317 317 318 322 324 327 326 327 330 330 331 334 334 330 328 328 329 328 327 327 327 327 327 327 328 327 327 328 330 329 327 326 326 326 325 326 325 324 323 320 314 308 305 304 302 302
316 317 316 315 316 314 314 317 316 316 316 316 315 313 315 316 315 314 315 316 315 315 315 314 313 312 311 311 312 312 312 312 312 313 313 314 314 314 314 314 315 315 316 316 316 315 315 315 315 316 316 317 318 318 318 319 323 326 327 330 329 330 332 332 331 329 329 330 329 329 328 327 328 328 327 328 328 327 328 331 331 328 325 325 325 325 326 326 323 323 324 319 311 307 306 304 302
317 317 317 316 315 314 313 315 315 315 315 316 315 314 314 315 314 314 314 315 316 315 314 314 313 311 310 311 311 311 311 312 312 313 313 314 314 314 314 314 314 314 315 315 316 315 316 315 315 316 316 316 317 318 318 318 320 324 327 329 329 331 331 331 332 332 331 330 331 332 331 329 328 328 327 327 327 327 328 330 330 327 324 324 324 326 327 325 323 324 325 320 314 310 308 307 304
317 316 317 316 314 315 314 314 315 314 315 315 315 313 314 314 313 313 313 315 316 314 311 311 311 310 310 310 311 311 311 312 313 313 313 314 314 314 314 314 314 314 314 314 315 315 315 315 316 316 316 316 317 317 318 319 319 324 329 329 329 330 331 330 332 333 331 330 332 333 332 330 330 330 328 327 327 327 328 329 329 326 323 323 323 324 326 325 325 325 323 320 315 313 311 309 307
316 316 316 316 314 316 315 314 315 314 314 313 313 314 314 313 312 313 313 314 315 311 309 309 309 309 309 310 311 311 312 312 313 313 314 314 314 314 314 314 314 313 313 314 314 314 314 315 315 315 316 316 316 317 317 319 321 325 329 329 329 328 330 333 332 331 331 330 331 332 332 330 329 330 329 328 328 328 328 329 329 325 322 323 323 323 324 325 326 324 322 320 317 316 314 311 310
316 316 314 314 314 316 315 314 314 313 312 313 313 313 312 312 313 312 311 312 311 309 309 309 308 309 309 310 311 311 312 313 313 313 314 314 314 314 314 314 314 314 313 313 313 313 313 313 314 314 315 315 316 317 317 318 319 325 328 328 329 328 332 337 336 334 330 330 330 329 329 328 328 329 330 329 328 328 329 330 328 325 324 326 324 322 323 325 326 325 324 322 320 320 317 314 313
316 316 314 314 314 315 315 313 313 312 312 313 312 312 312 313 313 311 309 308 308 308 309 309 309 309 310 310 311 312 312 312 312 313 313 313 313 313 314 313 313 313 313 313 313 313 313 313 313 313 314 315 316 316 317 317 317 324 326 325 327 326 330 334 333 331 327 329 333 331 329 329 328 329 330 329 326 327 329 330 327 325 328 330 326 321 322 326 326 326 326 324 322 322 319 316 315
315 315 314 314 313 313 313 312 313 312 312 312 311 311 312 312 311 310 308 307 307 308 309 309 310 310 310 310 311 311 311 312 312 312 312 312 313 312 313 313 313 313 313 313 313 313 314 314 313 313 313 314 315 316 317 318 319 323 324 325 327 325 329 332 329 327 325 329 333 332 331 330 328 328 330 330 327 327 328 327 325 324 327 326 325 323 324 326 326 326 326 324 323 322 321 318 316
314 314 314 313 313 313 313 313 313 313 312 311 312 313 312 310 310 309 306 306 308 308 309 309 309 310 310 310 310 311 311 311 311 311 311 311 312 312 312 312 313 313 313 313 313 314 314 314 314 313 313 313 315 316 316 319 322 324 324 325 325 324 328 331 329 328 327 326 328 330 332 331 329 328 330 332 328 326 327 327 326 325 325 324 324 325 327 327 326 326 325 324 324 324 322 320 318
313 313 312 313 313 312 313 313 312 312 311 311 312 314 311 309 311 310 306 306 308 308 308 309 309 309 309 310 309 310 310 310 310 310 311 311 311 312 312 312 312 313 313 313 314 314 315 315 314 314 313 313 314 315 317 322 325 325 328 328 327 327 328 328 329 331 329 327 327 329 331 331 331 330 330 331 329 328 329 327 327 327 326 325 324 323 325 324 323 325 326 325 325 324 322 321 319
312 312 313 313 313 313 312 312 311 311 312 310 311 312 310 309 310 310 307 307 308 308 308 308 308 309 309 309 309 309 309 309 310 310 311 311 311 311 311 312 312 312 313 313 314 314 316 315 316 315 314 314 315 317 320 324 326 324 329 331 328 330 331 329 329 329 329 330 330 328 328 329 330 331 330 331 331 331 331 328 328 328 325 326 325 324 323 321 323 326 327 325 324 323 322 321 320
311 312 314 315 315 315 312 311 310 310 312 310 310 312 311 311 310 308 307 307 308 307 308 308 308 308 308 308 308 309 309 309 310 310 311 311 311 311 311 311 311 312 312 314 315 316 316 316 316 316 316 317 316 319 322 327 330 327 330 329 325 328 331 329 328 328 328 328 328 327 327 326 327 329 329 329 329 329 330 328 327 327 327 326 325 324 324 323 325 327 326 324 323 323 322 321 321
313 312 313 315 317 316 312 310 311 311 312 310 311 315 314 311 309 308 307 307 308 308 308 308 308 308 308 308 308 308 308 309 309 310 310 310 311 310 311 311 311 312 313 315 316 316 318 318 318 317 318 320 319 320 322 328 331 329 330 328 326 328 328 326 328 328 327 326 325 327 328 327 326 328 329 329 328 327 328 328 326 326 328 326 323 325 326 325 326 326 325 324 324 324 322 322 321
313 313 313 315 317 316 312 310 311 312 312 309 312 316 315 311 309 308 308 307 308 308 308 307 307 307 307 307 307 308 308 308 309 309 309 310 310 310 311 311 311 313 314 315 317 318 319 319 319 319 319 322 325 324 322 325 328 327 328 327 327 329 326 324 325 324 324 324 323 325 327 328 328 329 329 329 329 327 328 329 327 326 325 324 323 325 327 326 325 325 324 324 324 323 322 321 321
313 314 316 316 316 316 314 310 310 313 312 310 312 316 316 311 309 308 308 308 307 308 307 306 306 306 306 306 306 307 307 308 308 308 309 309 309 310 311 311 312 313 315 316 318 320 320 320 321 321 320 322 325 326 324 324 326 326 326 325 326 325 325 325 323 322 324 324 324 324 325 326 327 328 327 328 328 326 327 328 328 327 325 325 325 325 324 323 323 324 324 322 322 322 321 321 320
314 315 318 318 316 317 316 311 309 310 311 311 313 316 316 312 309 308 308 308 307 307 306 304 305 305 305 305 305 306 306 307 308 308 309 309 309 310 310 311 313 314 316 318 319 320 321 321 321 322 321 321 322 325 324 323 326 326 325 325 326 324 324 326 324 323 324 324 324 325 325 324 325 326 326 326 326 326 326 326 326 326 326 326 326 325 324 324 324 324 324 322 321 322 321 321 319
316 315 316 317 315 315 316 313 311 310 311 313 313 314 316 311 308 307 306 306 307 307 305 304 303 303 304 304 305 305 306 307 307 308 308 309 309 309 310 311 312 315 317 318 319 319 320 320 321 321 321 322 322 323 323 323 324 325 324 324 325 324 323 323 323 323 322 323 323 323 323 323 323 324 325 325 325 326 326 325 324 324 324 325 325 324 324 324 324 323 323 323 322 322 322 321 320
318 317 316 316 314 314 315 315 312 310 312 314 313 314 315 311 308 307 306 306 307 306 304 303 302 302 303 303 304 305 306 307 307 308 308 308 309 309 310 310 312 315 316 317 318 318 319 319 319 320 321 321 321 321 322 322 322 322 322 322 322 322 321 321 321 321 320 320 321 321 321 320 320 321 321 322 323 323 323 323 323 322 322 323 322 322 322 322 322 321 321 321 321 321 320 320 320
317 317 316 316 316 315 315 314 311 310 313 315 314 315 316 314 309 307 306 305 306 305 303 303 302 302 302 302 304 305 305 306 307 308 308 308 308 309 309 310 312 314 315 316 317 317 317 318 319 321 321 321 320 320 321 321 320 320 319 319 320 320 319 320 320 320 320 319 319 319 319 319 319 319 319 320 320 320 320 321 321 321 321 321 321 321 321 321 320 320 320 319 319 319 318 318 318
315 315 316 315 316 317 315 313 310 309 312 314 314 314 315 315 311 307 306 305 305 305 304 304 302 301 301 301 303 304 305 306 307 307 308 308 308 308 309 310 311 313 315 315 315 316 317 318 318 319 319 320 319 319 320 319 318 318 318 319 319 319 319 319 318 318 318 319 318 318 318 318 317 317 317 317 317 318 318 318 318 319 319 319 318 318 318 319 318 318 318 317 317 317 316 315 315
313 315 316 315 316 316 314 312 309 309 312 314 312 312 314 314 310 306 305 306 306 305 305 304 302 301 301 301 302 303 305 305 306 307 307 307 307 308 309 310 311 313 314 315 315 316 317 318 317 316 316 317 317 317 318 318 318 318 317 317 317 317 317 316 316 317 317 317 316 316 316 316 315 315 315 315 314 313 313 313 313 313 314 313 313 313 313 314 314 313 313 313 313 312 312 311 311
313 314 315 316 316 316 314 311 308 308 311 314 312 311 315 313 308 305 305 305 304 303 303 302 301 301 300 300 301 302 303 304 305 306 306 306 306 307 309 310 310 312 313 314 316 316 316 316 314 314 314 314 315 315 315 316 316 315 314 313 314 314 313 312 313 314 313 312 312 311 311 311 311 311 311 310 308 307 307 307 307 307 307 307 307 307 307 308 308 308 308 307 307 307 306 306 307
313 314 314 316 316 316 317 313 308 308 309 311 311 312 314 313 307 304 304 303 302 300 300 300 300 300 300 300 301 301 302 304 305 305 305 305 306 306 308 309 309 310 311 312 313 313 312 312 311 311 311 311 312 312 311 311 312 312 311 310 310 309 309 309 309 308 307 307 307 307 306 306 306 306 306 306 305 305 305 304 304 304 304 304 304 304 304 304 305 304 304 304 304 304 304 304 304
314 313 314 317 316 315 317 313 310 309 309 309 311 314 316 314 310 308 303 301 301 300 299 299 299 299 299 300 301 302 303 304 305 305 305 305 305 306 306 306 307 308 308 308 308 308 308 307 307 307 307 307 308 307 307 308 308 308 308 307 307 306 306 306 305 305 305 305 305 305 304 304 304 304 304 304 304 304 304 303 303 303 303 303 303 303 303 303 303 303 303 303 303 303 302 302 302
316 315 313 315 315 315 314 312 311 314 315 311 311 318 319 314 311 310 305 302 302 301 301 301 299 299 299 299 300 302 303 304 304 304 305 305 305 305 305 305 306 306 306 306 306 306 305 305 305 305 305 305 305 305 305 305 306 306 306 305 305 305 305 304 304 304 304 304 304 304 303 303 303 303 303 303 302 302 302 301 301 300 300 300 300 300 300 300 299 300 300 300 300 300 300 300 300
318 316 313 312 313 314 313 313 313 316 318 311 308 317 320 315 314 311 306 304 304 302 302 302 300 299 299 299 300 301 302 303 304 304 304 305 305 305 305 305 305 305 305 305 305 305 304 304 304 304 304 304 304 304 304 304 304 304 304 304 304 304 304 304 303 303 303 303 302 302 302 301 301 300 300 300 299 299 298 298 297 296 296 296 296 296 296 295 295 295 295 295 295 295 296 296 296
319 314 312 312 312 313 313 313 314 315 315 311 309 313 316 317 315 309 305 306 305 303 303 302 301 300 299 299 300 300 301 303 303 304 304 304 304 304 304 304 304 304 304 304 304 304 304 303 304 304 303 303 303 303 303 303 303 303 303 303 303 303 303 302 302 301 301 300 300 300 299 298 298 297 297 297 296 296 295 295 294 294 294 294 294 293 293 293 292 293 293 293 293 293 293 293 292
316 310 309 310 311 313 313 313 314 313 313 315 313 312 315 318 315 307 305 307 307 305 304 303 302 300 299 299 299 300 301 303 303 303 304 304 304 304 304 304 304 303 303 303 303 303 303 303 303 303 303 303 302 302 302 302 302 302 302 302 302 302 302 301 300 299 298 298 298 297 296 296 295 295 295 295 294 294 294 294 293 293 293 293 293 292 292 292 292 292 292 292 292 291 291 291 291
311 308 309 309 310 311 311 313 313 312 313 317 317 314 315 318 317 312 308 309 310 308 306 305 303 300 299 299 299 300 301 302 303 303 303 303 303 303 303 303 303 303 303 303 303 303 303 303 302 302 302 302 302 301 301 301 302 301 301 301 301 301 300 299 298 297 296 295 295 295 294 294 294 294 294 294 294 294 293 293 293 293 292 292 292 292 291 291 291 291 291 290 290 290 290 290 290
308 309 311 311 310 310 310 311 312 313 315 317 315 314 315 317 318 317 314 312 311 310 307 305 303 301 300 299 299 300 300 301 302 302 302 302 302 302 302 302 302 302 302 302 302 302 302 302 302 302 301 301 301 301 301 301 301 300 300 300 300 299 298 297 296 295 294 294 294 294 293 293 293 293 293 293 293 293 293 292 292 292 291 291 291 291 291 290 290 290 289 289 289 289 289 289 289
309 312 313 314 313 311 312 312 312 316 319 314 310 310 313 316 318 316 314 310 308 309 308 304 303 302 300 299 299 299 300 301 301 301 301 301 302 302 302 302 301 302 301 301 301 301 301 301 301 301 301 300 300 300 300 300 299 299 298 298 298 296 295 295 295 294 293 293 293 293 293 293 293 293 293 293 293 292 292 292 291 291 291 290 290 290 290 289 289 289 289 288 288 288 288 288 288
310 313 313 317 317 314 316 315 314 316 316 310 307 309 312 315 316 314 312 308 306 307 307 305 304 302 300 299 300 299 300 300 300 301 301 301 301 301 301 301 301 301 301 301 301 301 301 300 300 300 300 299 299 298 298 298 297 297 296 296 295 294 294 294 294 294 293 293 293 293 293 293 293 292 292 292 292 292 291 291 291 291 290 290 290 289 289 289 289 288 288 288 288 288 288 288 288
311 313 315 319 318 317 319 317 314 316 314 307 306 310 313 315 315 312 309 307 304 303 303 304 304 302 301 300 300 300 300 300 300 300 300 301 301 301 301 301 301 301 301 301 301 300 300 300 299 299 299 298 298 297 296 296 296 295 294 294 293 293 293 293 293 293 293 293 293 293 293 293 292 292 292 292 291 291 291 291 290 290 290 289 289 289 289 289 288 288 288 288 288 288 288 287 288
311 313 314 317 317 318 320 318 317 316 313 308 307 311 315 316 312 306 303 302 300 300 300 302 303 302 301 300 300 300 299 299 299 300 300 301 301 301 301 301 301 301 301 301 300 300 299 299 298 298 298 297 296 296 295 295 295 294 293 293 293 293 293 293 293 293 293 293 293 292 292 292 292 292 291 291 291 290 290 290 290 289 289 289 289 289 288 288 288 288 288 288 288 288 288 288 288
310 310 312 315 315 315 314 313 313 311 311 310 309 312 314 313 308 300 300 300 299 299 299 300 301 301 300 300 300 299 299 299 299 299 300 300 300 301 301 301 301 301 300 300 300 299 299 298 298 297 297 296 295 295 294 294 294 293 293 293 293 293 293 293 293 293 293 292 292 292 291 291 291 291 291 290 290 290 290 289 289 289 289 289 289 288 288 288 288 288 288 288 288 287 287 287 287
310 310 313 313 313 313 312 309 307 308 314 315 312 313 312 311 309 302 300 301 300 299 299 300 301 300 299 299 299 299 299 298 299 299 300 300 300 300 300 301 301 300 300 299 299 298 298 298 298 297 296 295 294 293 293 293 293 293 292 293 293 293 293 293 293 292 292 292 291 291 291 291 290 290 290 290 290 289 289 289 289 289 288 288 288 288 288 288 288 288 288 288 288 287 287 287 287
311 312 314 311 311 312 313 314 312 311 316 316 312 314 314 314 313 306 301 304 303 300 300 300 300 299 299 299 299 299 299 298 299 299 300 300 300 300 300 300 300 300 300 299 298 298 297 297 296 296 296 295 293 293 292 292 292 292 292 292 292 292 292 292 292 291 291 291 291 290 290 290 290 289 289 289 289 289 288 288 288 288 288 288 288 288 288 288 288 288 287 287 287 287 287 287 287
309 311 312 312 314 314 313 315 316 316 317 315 312 312 313 314 315 311 307 307 305 302 300 300 300 300 299 299 300 299 299 299 299 300 300 300 300 300 300 300 300 299 299 298 297 297 296 295 295 294 294 294 293 292 292 292 292 292 292 292 292 292 291 291 291 291 291 291 290 290 290 289 289 289 288 288 288 288 288 288 288 288 288 288 288 288 287 287 287 287 287 287 287 287 286 286 286
307 309 310 310 313 315 314 314 315 316 317 315 314 312 312 314 314 313 312 310 308 304 300 300 302 301 300 300 300 300 300 299 300 300 300 300 300 300 300 300 299 298 298 297 296 296 296 295 294 293 293 293 292 292 292 292 292 291 292 292 291 291 291 291 291 291 291 290 290 290 289 289 289 288 288 288 288 288 288 288 288 288 287 287 287 287 287 287 287 287 287 286 286 286 286 286 286
309 310 311 311 311 311 313 312 312 314 316 316 316 316 315 312 311 313 313 311 309 306 303 302 303 301 300 300 301 301 300 300 301 301 300 300 300 300 299 299 298 297 296 296 296 296 295 294 293 293 292 292 292 292 292 291 291 291 291 291 291 291 291 291 291 291 290 290 290 289 289 289 288 288 288 288 287 287 287 287 287 287 287 287 287 287 287 287 287 287 286 286 286 286 286 285 285
311 312 312 313 312 312 314 315 311 310 313 314 314 316 316 310 306 308 310 309 308 307 305 304 303 301 301 301 302 302 301 301 301 301 301 300 300 299 299 298 296 296 295 295 295 295 294 294 293 292 292 292 292 292 292 291 291 291 291 291 291 291 291 290 290 290 290 289 289 289 288 288 288 288 288 287 287 287 287 287 287 287 287 287 287 287 287 287 286 286 286 286 285 285 285 285 285
Wind_Speed
5 3 3 2 0 0 0 1 1 2 0 4 3 1 3 1 3 2 1 1 1 1 2 3 1 3 1 3 4 4 3 3 5 4 4 4 5 5 2 1 1 2 7 14 16 16 16 14 14 14 15 15 14 13 11 10 8 7 5 3 2 2 1 0 0 0 0 1 3 5 5 6 6 6 7 7 7 6 5 3 2 2 2 3 3 4 3 3 4 4 5 5 5 5 4 4 3
4 3 3 2 2 1 1 2 0 3 2 4 2 1 3 0 1 1 3 3 3 3 3 2 3 5 4 5 4 3 1 2 4 5 3 5 5 5 3 2 2 2 8 13 15 16 17 15 14 14 14 14 13 12 11 9 8 7 6 5 4 2 1 0 1 1 1 2 4 5 5 5 5 5 6 6 5 5 4 3 2 2 2 3 4 4 4 3 3 4 4 5 5 4 4 3 3
6 4 3 2 2 2 2 2 1 3 3 4 3 2 1 0 2 4 4 4 3 3 3 1 3 3 4 3 2 1 3 3 4 4 3 6 5 5 4 3 2 3 7 12 15 16 17 16 14 14 13 12 12 11 10 10 8 7 7 5 4 2 1 0 1 2 2 3 5 5 5 4 5 5 6 6 4 4 3 3 2 2 1 2 3 3 3 4 3 3 3 3 4 4 3 2 2
6 5 3 2 1 2 1 1 1 1 2 3 4 3 1 1 3 4 3 4 3 1 2 1 2 1 3 2 2 1 4 4 5 5 3 6 5 5 4 4 3 4 7 11 14 15 16 15 15 14 13 12 11 11 10 10 8 7 6 5 3 3 2 1 0 2 3 4 5 6 5 5 5 5 5 5 5 3 3 2 2 1 1 0 1 1 2 4 3 2 3 3 3 4 4 4 4
7 6 3 2 1 1 0 1 1 0 2 2 4 4 1 1 3 3 5 4 1 1 1 2 1 1 2 3 3 2 5 4 4 6 4 6 6 6 5 5 4 4 6 9 12 14 15 15 15 14 13 12 11 10 10 9 8 7 7 5 4 3 3 2 1 2 3 4 5 6 5 5 5 5 5 6 5 4 3 1 1 2 3 2 1 1 1 2 3 3 4 5 6 6 7 7 7
7 7 6 4 2 1 1 2 2 2 4 2 4 5 2 2 3 5 4 2 3 2 3 2 2 2 0 2 3 3 6 4 4 5 4 5 5 6 5 5 5 5 6 8 11 13 14 14 15 14 13 12 11 11 10 9 9 8 7 6 5 4 4 2 1 2 2 3 5 5 5 4 5 4 5 6 6 5 3 2 0 3 4 3 2 2 3 2 2 4 5 7 9 10 11 10 10
6 5 4 4 4 2 1 2 3 4 3 3 3 3 3 3 4 5 2 2 2 3 3 3 4 2 1 3 3 4 5 5 5 3 3 4 4 4 5 6 6 6 6 7 9 12 13 14 15 15 14 13 12 11 10 10 9 9 8 7 6 5 4 2 2 2 2 3 4 4 4 3 3 3 5 5 5 4 4 3 0 3 4 4 3 3 4 4 4 5 7 10 11 13 14 13 12
6 3 1 1 2 2 1 3 3 2 2 1 3 2 3 4 4 4 1 1 2 3 4 4 4 2 3 5 2 6 8 7 7 4 2 2 2 3 5 5 6 6 6 6 8 10 12 13 14 15 14 13 12 11 10 9 9 9 8 8 7 6 4 3 2 2 2 3 4 3 3 3 2 1 3 4 4 4 3 3 1 2 3 3 3 4 6 6 7 8 10 11 12 13 13 13 11
6 3 1 1 1 1 2 3 2 2 1 0 2 3 4 4 3 3 2 2 2 3 4 3 4 3 3 3 4 7 10 10 9 6 3 1 2 2 4 5 5 5 6 6 7 9 10 12 13 14 14 14 12 11 10 9 9 9 9 8 7 6 5 3 2 2 4 4 4 3 3 3 2 1 2 3 3 3 2 2 1 1 2 3 3 5 7 8 9 10 11 12 11 10 10 10 8
5 3 2 1 1 2 3 2 2 2 2 1 2 3 4 2 2 2 2 2 2 2 3 2 1 4 3 2 5 7 10 11 10 8 6 3 1 1 3 4 4 4 5 6 7 8 9 11 12 14 14 14 13 12 11 10 9 9 9 8 7 7 5 4 3 3 4 5 4 4 4 2 2 2 3 3 3 3 2 1 1 1 1 3 5 6 7 9 10 12 12 11 10 8 7 6 5
2 3 2 1 2 3 3 3 3 3 3 1 1 2 3 2 2 2 1 0 2 2 3 3 1 4 3 3 5 7 9 8 7 7 6 4 2 0 2 3 3 3 4 5 7 8 8 10 11 13 13 14 13 13 12 11 10 10 9 8 8 7 6 5 4 4 5 5 5 5 4 2 2 3 3 3 3 3 3 2 2 3 3 4 6 7 8 9 11 13 13 11 9 7 5 3 2
0 1 1 2 2 2 1 3 3 4 4 2 3 1 3 2 1 1 1 1 2 1 2 4 3 4 1 3 4 5 5 9 8 6 4 4 2 1 1 1 2 3 3 3 5 8 8 9 10 11 12 13 14 14 14 13 12 11 11 10 9 9 7 6 6 5 5 6 5 5 5 4 4 4 3 3 4 4 4 3 3 4 5 6 7 8 9 11 12 13 13 11 8 6 4 1 1
1 1 2 2 0 0 2 3 3 3 4 3 3 3 5 1 1 3 2 2 2 0 3 4 3 3 2 0 3 3 7 11 10 7 5 3 2 2 3 3 3 3 4 4 4 6 8 9 9 10 11 12 13 14 15 15 14 12 12 11 11 10 8 7 6 6 6 6 6 6 6 6 6 5 4 4 5 4 4 5 5 5 5 7 8 9 10 11 12 13 14 11 8 6 3 1 1
3 1 1 1 1 1 2 2 3 4 4 4 2 5 5 1 3 4 2 3 2 3 6 5 3 3 3 2 2 1 8 10 10 8 6 4 3 4 5 5 6 6 5 5 5 6 7 8 9 10 10 11 12 13 15 16 16 15 13 13 12 11 10 9 8 7 7 7 7 7 7 7 6 6 5 5 5 4 5 6 6 6 7 7 8 10 10 11 12 13 13 11 8 5 3 1 2
4 3 2 2 2 2 2 0 3 4 4 4 2 5 2 1 5 3 1 4 3 6 8 5 3 3 2 2 2 6 10 9 10 9 6 5 3 4 5 6 7 7 7 6 6 6 6 7 9 10 10 10 11 13 14 15 16 17 15 14 13 12 11 11 9 8 8 8 8 8 8 7 7 6 6 6 6 6 6 7 8 8 8 8 10 12 12 12 12 12 12 10 7 5 3 1 2
4 3 1 2 2 2 2 2 2 3 4 4 2 5 1 0 4 2 1 5 5 7 8 5 3 4 4 5 6 10 12 11 12 9 6 5 4 4 5 6 6 7 8 8 8 6 6 6 7 8 9 10 11 12 13 13 14 17 17 16 15 13 13 12 11 9 9 9 9 9 9 8 7 7 7 7 7 7 7 8 9 10 10 10 11 13 14 14 12 11 12 10 8 4 2 1 2
3 1 1 2 2 2 3 5 3 2 4 4 3 3 1 2 3 4 6 6 5 8 9 6 3 4 4 6 9 12 13 13 12 10 7 7 6 7 6 6 6 7 8 9 10 9 8 7 6 7 8 9 10 11 12 12 14 16 16 16 16 15 14 13 12 11 10 9 9 9 9 9 8 8 8 8 8 8 9 9 10 11 11 11 12 13 13 12 9 8 11 10 8 5 2 0 2
2 0 1 1 2 1 3 5 3 2 3 4 2 2 1 3 4 6 7 2 3 8 6 3 1 1 2 7 11 13 13 12 9 9 8 8 8 9 8 8 7 7 8 10 11 12 11 10 8 8 7 8 9 9 10 11 13 14 15 15 16 17 16 14 12 12 11 10 9 9 10 10 9 10 9 9 9 9 11 10 9 10 12 12 12 13 13 11 7 8 12 11 9 6 2 1 2
1 0 1 1 2 1 1 3 4 1 2 2 1 1 1 3 4 6 6 3 4 6 2 4 5 2 7 9 9 9 9 8 6 6 7 8 8 9 9 9 9 9 9 10 11 13 13 12 11 10 9 9 9 9 9 9 10 11 13 14 15 16 16 14 12 12 11 11 11 10 9 10 10 10 11 10 10 10 11 11 9 10 13 13 12 11 12 11 8 9 13 12 10 7 3 3 3
1 1 1 2 2 1 2 3 3 2 1 1 0 0 2 2 3 5 7 9 6 3 4 3 2 6 12 8 5 5 5 4 3 3 4 4 5 6 8 9 10 10 11 11 12 13 14 14 14 13 12 11 10 10 8 8 7 8 12 14 15 15 15 15 13 13 12 12 13 12 10 10 11 11 12 12 11 11 12 12 11 10 12 13 12 11 12 11 9 12 15 13 11 8 5 4 4
1 1 2 4 2 2 4 4 3 3 2 1 1 2 2 1 2 4 5 8 2 5 5 5 5 10 10 6 4 3 3 3 2 2 1 1 1 1 2 4 6 8 9 11 12 13 14 15 15 15 15 14 12 11 9 8 7 8 10 13 15 16 15 14 14 13 13 13 13 13 12 12 13 12 12 12 12 12 13 13 12 10 11 12 11 12 12 11 10 14 16 12 12 11 9 6 5
1 1 3 4 3 1 4 5 3 3 3 2 2 3 2 2 3 3 4 5 2 3 7 8 7 7 5 3 2 3 3 3 4 3 3 3 2 2 2 2 3 4 6 8 10 12 14 15 16 17 17 16 14 13 11 9 7 7 7 9 12 15 15 13 14 14 14 15 14 13 12 13 14 14 14 13 12 12 13 13 11 11 12 11 10 11 13 11 9 13 15 13 12 14 14 11 8
0 1 1 2 3 2 2 3 3 2 4 4 3 3 3 3 3 3 3 3 4 6 7 5 4 4 2 3 1 1 1 2 2 2 2 1 2 3 4 4 4 5 6 7 9 10 12 14 15 16 17 17 16 14 13 11 9 6 5 8 9 12 13 12 11 13 15 14 14 14 13 12 14 15 14 13 13 13 14 13 12 12 12 10 9 11 13 12 9 12 14 15 15 16 17 16 13
2 0 2 2 4 4 2 3 6 5 5 5 5 6 5 4 3 3 3 2 4 4 2 1 1 1 1 1 1 1 2 3 2 2 3 4 5 5 6 6 6 7 7 8 8 9 10 12 14 15 17 18 17 15 14 12 10 8 7 8 7 10 13 11 10 12 15 15 14 14 13 12 13 15 15 13 12 12 13 13 13 13 11 10 11 11 12 12 11 12 14 16 18 18 19 18 17
1 0 2 1 3 4 6 8 10 11 10 9 7 6 5 4 3 4 3 2 3 2 1 1 1 1 1 1 1 2 3 3 3 4 5 6 7 8 8 8 8 7 7 7 7 7 8 9 11 14 16 18 18 16 16 14 11 10 9 7 7 9 12 12 11 11 13 15 15 14 13 13 12 15 17 15 10 9 12 11 11 11 9 10 12 13 12 10 10 11 13 16 19 19 18 18 18
1 0 0 2 4 6 9 10 10 11 9 6 5 4 2 4 6 5 2 2 4 4 3 3 2 3 3 2 0 1 1 2 2 3 4 5 5 6 7 7 7 6 5 5 5 4 4 4 7 11 14 17 18 17 16 13 10 9 8 6 7 9 11 13 12 11 11 13 16 16 14 13 12 13 15 15 12 9 10 11 9 8 6 8 10 11 11 11 11 11 13 15 15 16 16 16 17
2 0 3 5 7 8 9 9 9 9 8 7 6 3 2 6 6 2 1 3 5 4 4 5 4 4 2 1 2 2 3 4 4 4 3 3 3 4 5 6 6 6 5 4 4 3 2 1 3 6 10 14 16 15 14 11 10 10 9 8 10 11 12 14 13 13 13 13 16 19 14 11 12 13 12 13 14 11 11 11 10 8 5 6 7 9 10 11 11 10 13 14 13 13 14 14 14
1 2 5 6 6 7 8 8 7 5 4 4 5 3 4 5 4 2 1 5 6 5 5 4 2 1 2 3 4 5 5 6 6 4 3 3 4 5 5 5 5 5 5 5 5 4 3 3 2 3 6 10 13 13 12 12 12 13 13 12 14 13 12 13 13 12 13 12 14 17 14 11 12 14 12 12 14 14 13 12 11 11 9 7 8 9 9 8 8 10 12 11 10 11 11 11 10
0 2 5 6 6 4 1 2 2 1 1 4 5 4 4 4 3 3 2 6 7 5 5 3 1 1 1 2 3 4 4 5 5 5 6 6 6 6 6 6 6 6 6 6 6 5 5 4 4 6 8 10 12 14 16 15 14 14 14 14 15 14 13 13 12 11 13 12 12 13 13 13 13 13 13 12 12 11 11 10 10 11 12 11 9 9 9 9 10 12 11 8 7 10 10 11 11
1 1 3 6 6 2 2 2 2 1 1 5 4 2 3 6 5 1 3 8 8 4 4 3 2 1 1 1 2 3 3 4 4 5 6 7 7 6 6 6 6 7 7 7 6 5 5 5 6 9 11 12 12 15 18 18 17 16 15 15 13 11 12 14 12 9 10 12 12 12 11 12 13 12 11 11 10 8 7 8 8 10 12 11 9 7 9 11 11 11 10 8 8 11 12 11 12
2 1 1 2 4 1 4 1 3 2 2 5 5 4 1 8 5 1 2 9 9 4 3 3 2 2 1 0 1 2 2 3 3 4 5 5 5 5 5 5 6 7 6 7 7 7 6 6 7 10 13 15 15 15 17 18 17 17 16 14 12 9 9 10 9 6 7 9 10 11 11 12 12 9 8 8 8 9 8 8 8 9 9 9 10 9 9 10 10 9 10 10 10 11 12 11 12
1 3 3 2 2 1 3 2 3 1 1 2 5 4 1 8 5 1 2 8 8 5 3 3 3 2 1 0 0 1 2 3 3 3 3 3 4 4 4 4 6 6 7 8 8 9 7 7 9 10 12 15 17 15 15 15 14 14 13 10 9 8 7 6 6 4 2 3 5 7 9 12 12 10 9 8 8 9 8 8 8 7 8 9 11 11 10 10 10 10 12 12 12 12 12 12 12
1 3 4 2 3 3 0 3 2 2 0 1 3 4 1 6 5 1 3 6 7 5 4 4 3 3 2 1 1 1 1 1 1 2 2 3 3 3 4 5 6 7 8 9 9 10 9 9 10 11 11 12 15 15 13 14 13 11 11 9 7 8 7 5 4 3 1 1 1 2 2 3 5 6 7 7 8 9 10 10 8 7 9 9 8 9 9 10 11 12 12 12 12 13 13 13 13
2 2 4 3 3 4 2 2 2 1 3 2 1 5 4 5 7 2 4 6 5 5 5 4 3 3 2 2 3 3 3 3 3 3 3 3 4 4 4 5 7 8 9 11 11 11 11 10 10 11 12 12 12 13 13 13 13 11 10 9 7 7 6 5 5 4 2 2 3 3 3 2 2 1 1 2 4 6 8 9 8 8 9 8 8 8 8 9 10 12 12 12 13 14 14 15 15
3 4 4 3 3 5 4 2 1 1 3 3 2 6 7 5 8 3 3 6 5 5 5 4 3 3 3 3 4 5 5 5 5 5 4 4 4 4 5 5 7 9 11 12 13 13 13 12 12 12 12 12 10 11 11 10 10 8 8 7 6 5 5 5 5 3 2 2 2 2 3 4 4 4 4 3 2 3 4 4 4 5 6 6 7 8 8 8 8 9 10 12 13 13 14 14 14
1 3 3 5 5 6 4 1 1 1 4 7 7 9 10 6 7 6 4 5 4 5 5 4 3 3 3 4 5 6 6 6 6 6 5 5 5 6 6 6 8 11 12 12 13 13 13 14 15 15 14 13 11 11 11 9 7 7 7 7 7 7 6 6 5 3 3 4 4 4 5 6 5 5 5 5 4 4 4 4 4 5 5 6 7 7 8 8 8 9 10 10 11 12 13 12 13
1 2 3 5 6 7 3 3 2 0 3 7 7 8 12 9 4 7 5 5 5 5 5 4 4 3 4 5 6 7 7 7 7 7 6 6 7 8 8 9 10 12 12 13 13 14 16 16 16 16 15 14 12 10 9 8 8 8 8 8 8 8 7 5 4 3 2 2 4 5 4 5 5 4 4 4 5 5 5 5 5 5 6 6 6 8 8 9 10 10 11 11 12 14 14 14 15
3 4 4 5 7 8 3 2 2 1 3 5 3 6 12 9 3 6 5 6 5 5 5 4 4 4 4 5 6 7 8 8 9 8 8 9 9 10 11 11 12 13 14 14 15 17 17 15 13 13 13 11 10 9 9 9 10 9 8 9 8 7 6 4 3 2 2 2 3 4 3 3 4 4 4 5 6 6 6 5 5 5 5 7 8 9 10 10 10 11 12 12 13 14 15 17 18
4 4 4 5 5 5 3 2 3 2 4 3 2 5 10 5 4 5 4 5 4 3 4 4 4 4 4 5 6 7 8 9 10 10 11 11 12 13 13 14 14 15 16 16 17 17 15 12 11 12 12 11 10 10 10 9 10 8 8 10 9 8 8 7 5 4 4 4 4 4 4 4 4 5 4 5 6 6 6 6 6 6 7 7 8 8 8 8 9 9 10 10 10 11 12 14 16
6 5 5 6 3 3 5 1 3 2 2 2 1 5 9 4 4 3 4 4 4 4 4 5 5 5 6 7 8 9 11 12 12 13 14 15 15 16 16 17 17 18 18 18 18 17 16 15 16 16 16 15 14 13 12 12 12 11 11 12 12 13 14 13 11 11 10 10 10 10 11 10 10 9 9 9 9 10 10 10 10 9 8 8 7 7 6 6 7 7 8 8 7 8 9 11 11
7 7 8 8 5 7 6 1 2 2 2 2 2 6 8 6 6 4 4 4 4 4 5 5 6 7 9 10 11 13 14 16 17 17 18 19 20 20 20 21 21 21 21 21 21 21 22 22 22 22 22 21 20 19 18 18 16 16 15 15 16 17 18 16 15 15 14 13 13 14 14 13 13 12 12 12 12 12 12 12 12 11 11 10 10 9 9 9 9 9 9 9 8 9 10 11 11
6 8 12 12 10 8 5 2 1 4 4 3 3 6 4 4 6 5 5 5 5 5 6 6 6 8 9 10 12 15 17 19 20 21 22 23 23 24 24 24 24 24 25 25 25 25 25 25 25 24 24 23 23 22 20 19 17 17 16 15 15 16 17 16 16 15 14 13 13 14 13 13 12 12 12 12 12 12 12 13 13 12 12 12 12 12 11 11 11 11 10 11 11 11 11 11 11
5 4 9 12 10 6 5 5 4 4 3 1 1 6 4 2 4 5 5 5 6 5 6 7 7 8 9 11 15 18 19 22 23 24 25 25 26 26 26 27 27 27 26 26 25 25 24 24 24 23 23 22 21 20 19 17 16 15 13 13 13 13 13 15 16 15 14 13 13 13 12 12 12 12 12 12 12 12 12 12 13 13 13 13 13 12 12 13 13 13 13 12 12 12 11 11 12
3 1 2 7 8 7 8 8 6 3 2 0 3 4 5 4 2 4 5 5 5 7 7 8 9 9 9 12 17 20 22 24 26 27 27 27 27 27 27 27 27 26 26 25 24 24 23 22 21 20 20 20 19 18 16 14 14 13 11 10 9 10 11 14 15 14 14 13 12 12 12 12 12 11 11 12 12 12 12 12 12 13 13 13 13 13 14 14 14 14 13 13 13 13 13 13 13
1 2 2 4 4 5 7 6 6 2 1 4 6 4 4 6 3 4 4 5 7 9 10 10 12 12 12 16 19 22 24 27 28 29 29 28 28 28 27 26 26 25 24 23 22 21 20 19 18 17 17 17 17 15 14 13 11 10 8 7 7 9 11 13 14 14 14 12 11 11 11 11 11 10 11 11 11 11 11 12 12 12 13 13 14 14 14 14 13 14 14 14 14 14 14 14 14
4 6 6 7 5 4 4 4 3 2 3 8 7 8 6 5 4 4 3 5 8 9 10 11 14 14 14 18 22 23 26 28 29 30 29 29 28 27 26 25 24 23 22 21 20 19 17 16 15 15 15 16 15 13 11 10 9 7 7 7 7 9 11 12 13 13 12 11 10 10 10 10 10 10 10 10 10 11 11 12 12 13 13 14 14 14 14 14 14 15 15 15 15 15 15 14 15
9 8 6 7 5 4 3 1 2 2 6 6 5 9 7 5 4 7 4 2 3 8 10 11 14 16 17 20 24 26 28 29 30 30 30 29 28 27 25 25 23 22 21 19 18 16 15 14 13 12 14 14 12 11 9 8 8 7 7 7 8 10 11 11 11 11 11 10 9 9 9 9 9 9 10 10 10 11 11 12 13 13 13 14 14 14 14 15 15 15 15 15 15 15 15 15 15
6 4 5 5 3 3 2 2 2 5 5 1 1 3 6 7 4 4 3 2 2 7 10 13 17 18 20 24 27 28 29 31 31 31 30 29 28 26 25 24 23 21 20 18 16 14 13 12 10 10 12 12 10 10 8 7 8 7 8 8 9 11 11 10 10 10 10 8 8 8 8 8 8 9 9 9 10 11 11 12 13 13 13 14 14 14 14 14 14 14 14 14 14 14 14 14 14
3 4 7 6 3 3 3 3 3 6 3 2 2 1 4 7 6 3 3 4 3 3 5 13 21 22 22 27 30 30 31 32 32 31 31 30 28 26 25 23 22 20 18 16 15 13 11 11 9 7 9 10 9 9 8 8 9 9 9 9 10 11 10 9 8 8 8 7 7 7 7 7 7 8 9 9 10 11 12 12 13 13 14 14 14 14 14 14 14 13 13 14 13 13 14 14 14
7 7 8 7 5 4 5 4 2 4 1 2 1 1 3 4 5 3 2 4 3 2 2 10 20 23 25 31 32 32 32 32 32 32 31 30 28 27 25 23 21 19 18 16 14 13 11 10 8 6 7 9 9 9 9 9 9 10 10 10 10 10 9 8 7 7 7 6 6 6 6 7 8 9 10 11 12 12 13 13 14 14 14 14 14 14 14 14 14 14 14 14 15 15 15 15 15
7 4 3 5 4 4 4 3 3 2 2 2 1 2 4 4 1 2 3 4 3 2 3 9 16 21 27 33 33 33 33 33 32 32 31 30 28 27 25 23 21 19 18 16 14 13 11 10 9 7 7 9 10 10 10 10 9 10 10 9 9 8 7 6 6 5 5 5 5 6 7 8 10 11 12 12 13 13 14 14 14 14 14 14 14 14 14 14 14 14 15 15 15 16 16 17 17
3 1 1 3 3 1 0 0 0 2 1 2 3 3 3 2 2 2 2 2 2 2 3 9 14 20 27 32 33 34 34 33 33 33 32 30 29 27 25 23 21 20 18 16 15 13 12 11 10 9 9 10 11 11 10 10 9 10 9 9 8 7 6 5 4 4 4 4 6 7 8 9 10 11 12 12 13 13 14 14 14 14 14 15 15 15 15 16 16 16 16 16 17 17 18 18 18
4 3 5 3 1 2 2 0 2 1 4 3 4 4 3 1 2 3 3 1 3 3 4 9 13 18 26 31 34 36 36 35 34 34 33 31 29 28 26 24 22 20 19 17 16 14 13 11 11 11 11 12 12 12 11 10 10 9 9 8 7 6 4 3 2 2 3 4 5 6 7 8 9 10 11 12 13 13 13 13 14 14 14 15 15 16 16 17 17 18 19 19 19 20 20 21 21
5 5 6 3 1 1 1 3 1 2 6 3 4 7 6 4 3 2 4 5 6 7 7 9 11 16 23 31 36 37 36 36 35 34 33 31 30 29 27 25 23 21 19 18 17 16 14 13 12 12 12 12 12 12 12 11 10 9 9 7 6 5 3 2 1 1 2 4 5 6 7 8 9 10 11 11 12 12 12 13 13 14 14 15 15 16 16 17 18 19 20 20 21 21 22 23 23
0 2 3 2 2 4 3 3 2 3 5 3 4 6 6 7 5 3 7 10 10 10 9 10 14 19 24 31 37 38 37 37 36 35 35 33 32 30 28 26 24 23 22 20 19 17 16 15 15 14 13 13 13 13 12 12 11 9 8 7 6 4 3 2 0 1 3 4 6 7 8 9 10 11 11 12 12 13 13 14 14 15 15 16 16 17 17 18 19 19 20 20 21 22 23 23 24
1 1 2 0 3 3 3 3 2 3 5 3 2 3 4 7 7 8 12 13 12 13 10 11 19 24 27 33 39 41 40 40 39 38 37 35 33 31 29 28 26 25 24 22 21 19 18 18 17 16 15 14 14 13 13 12 11 10 8 7 6 5 3 2 1 2 4 6 7 9 10 11 12 13 14 14 15 15 16 16 17 17 18 18 19 19 20 20 20 21 21 22 23 24 24 25 26
5 6 6 4 2 0 1 2 1 1 4 4 4 4 3 4 3 6 9 8 11 15 13 13 20 25 30 37 43 45 44 43 42 41 39 36 34 32 30 29 28 27 26 24 22 21 20 20 18 17 16 15 14 14 13 12 11 10 9 7 6 4 3 2 2 4 6 8 9 11 12 13 15 16 16 17 18 18 18 19 19 19 19 19 20 20 21 21 22 22 23 23 25 26 26 28 28
5 7 9 8 6 4 4 5 2 1 3 2 3 6 3 3 1 1 2 0 4 11 12 13 18 27 35 41 45 47 46 45 43 41 40 38 35 33 32 31 30 29 27 25 24 23 22 21 19 18 17 15 14 14 14 13 12 11 9 7 6 4 3 2 4 5 7 9 10 12 13 15 16 17 18 19 20 20 21 21 21 21 21 21 21 21 22 22 23 23 24 25 26 27 28 29 30
Wind_Direction
337 339 326 322 347 267 57 269 138 80 342 101 79 112 99 19 326 302 116 133 192 57 298 299 252 196 249 320 341 336 316 343 6 13 56 26 0 33 63 67 44 158 178 189 192 189 190 193 190 183 179 178 179 180 179 179 183 188 192 194 215 227 249 268 277 323 93 119 120 117 113 106 98 95 91 97 103 102 102 99 87 62 44 36 31 23 24 40 48 48 53 55 56 55 54 54 53
27 30 26 69 87 121 169 293 225 122 138 112 87 42 67 283 257 41 59 46 37 12 311 293 224 214 274 306 302 285 288 349 2 33 56 13 19 35 64 110 42 146 173 187 193 190 190 194 192 187 182 181 181 183 182 184 191 196 207 220 230 237 252 236 192 210 195 163 150 141 130 119 107 102 95 96 101 101 103 106 96 64 34 18 14 9 24 46 57 50 49 55 50 50 48 42 38
36 33 35 86 74 80 156 273 182 144 133 109 101 90 37 216 73 40 39 17 357 323 317 313 234 239 267 273 298 310 55 40 26 54 38 19 34 24 54 117 65 135 168 184 194 193 193 195 194 191 187 186 183 185 185 187 196 203 213 224 228 243 278 334 157 179 184 169 162 154 144 134 121 110 97 91 92 92 100 118 122 84 29 10 8 359 38 59 61 48 41 46 40 37 34 18 357
31 21 31 108 105 80 156 274 106 152 124 109 108 112 268 15 52 34 12 343 326 321 5 298 237 287 281 312 3 3 48 49 41 45 26 16 26 23 57 112 93 131 161 178 192 197 197 196 195 197 195 193 189 188 190 193 200 203 211 217 224 252 283 324 202 180 183 173 169 161 152 144 127 109 90 78 80 82 86 113 150 134 128 322 339 335 44 59 50 34 15 9 8 4 1 350 331
30 25 43 153 197 58 25 103 104 199 101 104 111 109 98 357 16 10 349 351 45 93 21 297 301 16 312 358 348 355 35 43 32 28 26 12 18 31 61 102 106 130 152 172 189 198 202 200 198 201 202 203 199 196 198 201 203 205 211 215 227 258 279 311 300 212 198 182 177 170 162 151 128 102 75 61 63 62 56 73 197 198 200 208 199 237 302 35 33 13 349 332 325 321 319 320 319
32 41 68 106 103 68 189 143 146 112 69 24 98 100 68 21 344 333 325 29 67 43 32 341 351 356 119 36 5 19 14 11 14 17 23 11 19 35 61 97 108 125 148 169 184 197 205 203 203 205 207 209 207 208 207 205 204 209 213 214 226 254 273 288 283 241 224 203 194 184 172 154 129 99 67 51 46 46 37 21 211 199 211 222 225 253 287 306 350 353 335 315 306 303 301 301 304
30 43 68 98 77 22 218 123 126 109 70 347 48 72 44 29 332 323 310 113 71 36 24 9 348 325 118 22 28 54 23 20 11 359 10 6 20 41 67 91 101 117 147 167 178 194 203 204 209 210 212 212 210 215 213 207 204 209 215 216 225 241 259 263 249 242 227 211 214 200 177 151 127 94 65 53 46 44 35 22 183 190 205 222 244 283 303 303 311 321 312 302 296 294 292 292 295
26 48 82 124 69 10 123 113 108 77 81 323 332 325 359 1 315 314 356 46 34 30 2 3 346 330 67 11 42 66 44 43 24 15 29 21 34 54 80 89 100 110 139 165 179 190 196 203 211 214 216 215 212 218 217 212 208 210 216 218 224 234 244 244 239 229 186 193 224 220 175 143 123 68 34 46 54 52 46 36 57 183 208 229 256 287 300 305 313 313 307 303 298 294 289 287 288
19 62 123 153 108 105 124 125 106 61 85 261 294 286 315 329 302 303 3 59 28 360 352 357 340 354 42 26 87 67 48 49 37 39 43 52 70 79 97 95 102 108 134 161 180 190 194 200 210 215 218 217 213 216 219 215 210 214 219 221 225 231 237 235 226 192 177 196 221 216 185 152 153 250 336 13 29 44 53 47 55 179 246 264 285 297 301 308 314 315 315 313 305 299 293 285 281
8 42 100 131 149 149 150 149 122 110 91 11 291 301 304 305 271 287 337 73 39 341 6 10 357 9 8 70 85 61 51 49 41 42 39 39 70 107 114 111 109 107 130 157 176 190 197 199 208 215 219 221 215 210 216 218 213 216 225 226 226 228 230 234 228 185 188 206 214 208 200 180 190 252 291 331 348 4 9 350 251 242 267 277 289 298 302 307 314 319 322 320 314 308 302 289 275
0 39 78 169 180 175 171 160 134 104 101 141 226 304 317 317 239 206 292 32 27 323 17 17 46 359 340 98 84 75 57 42 35 33 30 28 6 6 125 129 126 118 124 151 172 183 195 200 207 214 219 222 219 210 209 219 218 216 224 225 226 231 230 233 235 198 194 207 209 208 203 207 229 243 261 298 318 328 318 273 250 249 253 268 279 289 294 301 312 323 326 324 323 323 319 302 258
238 49 255 204 179 178 159 148 130 102 125 144 117 54 339 329 256 91 341 345 3 269 68 20 357 338 291 124 119 113 30 2 11 8 1 11 352 294 245 194 172 156 141 146 171 181 190 198 205 212 217 220 222 216 208 213 219 218 222 225 226 232 229 229 231 209 202 207 209 210 205 212 221 223 246 296 293 303 303 258 243 245 256 275 281 286 290 299 310 323 327 327 335 342 343 342 170
85 118 240 187 61 123 125 136 129 117 141 125 88 13 343 331 347 28 349 316 355 76 68 13 339 316 279 242 155 172 335 349 355 343 330 313 289 265 246 241 233 208 184 166 172 181 186 194 201 209 214 218 221 221 214 210 214 217 222 225 228 230 228 228 230 216 206 208 213 213 209 214 222 235 255 283 274 271 284 267 258 255 266 283 288 292 295 302 310 322 326 326 341 357 8 49 132
92 124 303 138 45 125 139 136 148 173 151 112 64 352 345 39 32 34 334 329 38 12 350 344 318 272 281 291 142 316 323 342 340 332 324 285 252 238 229 234 239 234 217 192 186 185 186 191 196 204 209 215 219 223 222 215 212 212 217 224 230 232 228 227 230 221 210 210 217 219 214 217 228 246 255 266 265 264 277 273 270 269 275 283 289 296 301 307 311 319 322 322 337 3 25 81 127
95 112 67 122 133 159 189 153 156 190 147 114 61 8 4 82 30 53 40 339 360 347 337 343 323 286 337 338 332 323 314 323 322 318 314 283 255 236 222 225 233 240 237 219 209 198 194 194 195 200 201 208 215 220 223 222 218 212 211 218 226 233 233 231 231 222 215 214 218 225 223 223 232 243 253 262 261 262 271 271 273 273 275 281 289 295 301 308 311 317 318 318 331 359 33 91 131
82 111 120 137 154 189 188 155 169 188 136 119 70 33 29 29 8 30 345 312 308 331 334 337 319 298 328 320 306 309 305 308 306 299 289 265 248 236 218 222 227 234 239 236 233 223 216 209 205 205 200 203 208 217 220 221 223 217 212 214 218 226 236 238 235 226 220 219 220 227 228 228 238 245 247 257 263 259 260 266 274 279 281 282 288 292 297 301 306 318 319 317 323 343 34 91 144
63 118 200 145 169 199 176 172 171 150 119 126 100 33 339 321 339 335 321 302 293 317 329 326 294 268 288 302 304 305 303 303 300 290 270 247 240 239 229 225 226 227 231 235 237 236 236 233 231 225 214 208 206 214 219 216 221 221 214 214 217 218 228 237 240 236 230 229 230 232 235 235 242 250 246 251 263 263 264 261 267 282 288 285 288 291 294 295 300 325 326 319 316 324 11 54 171
28 201 236 142 160 148 170 169 151 100 97 122 100 21 353 326 325 334 323 271 293 318 346 23 63 146 314 314 308 304 304 304 300 286 263 241 235 236 234 232 232 233 231 231 234 235 237 239 242 242 237 227 217 216 221 218 219 221 213 213 219 220 225 233 241 241 237 235 239 238 239 241 241 249 248 248 256 263 271 263 262 287 292 290 291 291 293 293 300 331 332 326 314 310 333 307 224
48 165 297 122 128 96 149 145 141 156 72 89 62 58 304 316 320 333 328 296 315 326 26 94 109 78 326 321 311 305 304 299 295 281 261 241 231 228 231 236 240 241 238 235 234 234 235 236 239 244 245 242 236 226 225 225 222 218 211 212 217 222 227 231 235 236 235 233 234 233 234 239 239 246 250 251 254 260 267 259 261 289 292 291 290 288 294 297 303 323 329 327 313 302 316 307 266
74 240 305 100 113 125 177 171 161 206 335 351 284 284 277 297 308 322 326 309 308 30 34 56 98 323 322 335 336 325 323 312 309 291 265 242 226 221 226 234 242 245 245 242 239 236 234 234 235 239 241 243 243 238 233 232 226 208 210 216 212 215 224 225 226 227 231 234 234 232 232 235 235 240 248 251 254 258 262 258 263 285 293 292 290 288 295 299 309 320 321 323 318 307 301 300 280
139 265 31 91 142 177 168 183 183 207 240 269 269 283 268 196 309 311 309 303 307 89 13 326 307 310 320 344 357 6 29 42 49 57 83 122 138 187 222 232 238 240 243 243 243 241 238 235 233 233 234 237 237 238 233 230 229 210 211 216 209 212 219 222 228 231 232 235 237 237 237 242 240 239 244 247 248 250 255 257 264 281 286 287 289 290 292 295 311 318 314 317 325 321 306 298 291
148 109 48 103 163 181 129 164 183 188 208 212 230 264 264 236 287 272 259 289 340 3 317 302 295 297 317 356 32 59 64 79 84 94 103 93 56 16 343 315 272 254 245 244 244 243 242 238 234 231 231 231 231 232 228 222 222 216 215 219 216 213 215 225 230 232 234 234 236 238 241 249 248 243 245 249 247 247 251 252 256 268 271 274 280 282 284 289 309 318 314 314 319 322 317 309 299
247 119 108 163 201 256 137 177 230 208 195 201 228 262 255 250 259 207 210 274 302 315 315 311 291 280 332 20 48 69 59 70 83 100 101 52 354 339 330 327 313 297 279 267 258 250 246 241 237 232 230 230 228 228 224 217 210 204 208 218 222 212 212 234 237 231 235 233 237 239 238 244 248 246 246 249 250 251 253 250 256 264 260 264 277 278 279 279 293 312 312 314 313 315 319 315 307
288 102 129 205 231 256 262 254 274 259 241 248 259 264 247 244 238 152 138 250 268 295 330 344 310 317 352 17 335 339 12 3 1 8 354 346 344 340 336 332 325 319 307 296 287 275 264 252 243 234 228 226 225 224 219 213 201 185 190 208 217 208 208 229 243 242 238 233 239 241 235 237 243 247 244 245 253 255 253 256 267 270 254 256 277 283 282 273 277 300 305 311 312 313 317 313 309
236 290 114 240 251 265 286 284 284 278 271 271 259 252 250 241 194 126 102 228 217 208 170 133 96 49 321 281 336 356 0 355 353 352 346 344 345 346 344 338 335 330 317 309 304 298 287 269 255 242 229 222 219 219 215 206 190 176 180 191 197 204 209 216 227 236 235 234 239 240 239 241 245 251 247 242 252 262 257 261 269 268 258 263 277 280 279 273 275 289 295 304 310 311 315 310 307
150 210 203 265 271 285 294 286 282 279 272 265 244 246 247 180 160 117 75 209 176 174 184 168 183 216 235 251 275 1 15 18 2 356 359 0 355 347 342 340 341 340 332 327 319 314 306 279 257 246 233 220 213 213 212 196 174 166 164 169 177 197 214 215 220 223 220 226 233 237 239 236 238 249 250 243 248 266 262 261 261 258 263 272 276 276 270 270 274 279 287 298 305 308 310 308 309
117 245 281 269 280 290 288 279 274 272 264 251 239 243 112 160 173 114 65 197 170 173 202 198 202 222 241 317 7 21 33 33 28 34 25 14 7 351 346 343 348 357 360 358 347 352 5 333 240 237 227 213 207 207 202 177 163 166 162 171 181 190 209 216 225 226 217 217 226 235 240 231 230 236 242 243 242 247 252 255 251 236 243 265 270 272 262 264 274 277 285 291 297 304 308 310 313
117 305 286 262 275 283 279 280 278 268 258 231 212 170 119 170 192 69 102 181 171 182 207 204 203 242 347 2 7 10 15 17 17 21 10 360 360 355 355 352 358 14 20 25 25 30 45 60 128 182 188 189 192 187 177 161 165 176 177 189 193 191 204 216 225 229 228 229 231 239 245 239 237 234 233 238 239 243 247 244 237 228 236 256 259 259 250 248 264 265 270 279 289 301 310 315 320
208 327 298 278 271 268 286 321 301 266 220 143 158 167 154 163 140 88 165 176 169 194 207 199 222 268 352 355 1 0 355 356 352 349 356 5 11 12 7 2 10 23 30 36 40 45 53 70 112 135 150 166 177 175 169 161 165 173 181 193 197 194 200 210 219 226 233 240 241 244 248 246 246 242 237 240 243 250 248 236 232 237 243 249 248 250 243 236 252 257 261 277 288 291 298 305 312
250 126 310 299 280 238 105 4 307 278 203 152 167 228 168 144 127 82 212 180 172 191 214 218 230 233 291 332 354 355 345 343 342 348 1 9 17 24 17 14 20 25 35 42 49 61 70 86 109 126 140 152 164 172 173 170 173 179 180 183 187 194 201 211 221 223 226 233 235 234 239 244 248 251 247 246 248 247 246 241 242 244 243 242 243 255 250 242 250 257 267 284 280 277 282 287 296
301 246 236 289 287 189 121 0 309 265 168 168 210 276 177 150 146 358 211 186 187 198 212 215 198 194 239 300 340 352 359 356 4 9 13 18 23 29 23 23 30 32 40 49 60 70 82 102 111 125 140 151 160 167 172 172 177 185 187 185 189 197 197 211 222 216 219 229 233 232 230 231 234 245 248 248 255 246 242 253 252 248 245 241 240 251 253 249 256 265 271 274 268 271 274 276 284
7 272 234 185 263 225 126 64 339 290 103 160 223 268 156 153 153 55 179 183 189 191 183 179 167 164 178 194 320 356 16 19 34 41 39 45 44 46 40 39 46 50 52 59 72 80 88 104 110 119 135 150 158 162 167 168 171 181 187 188 191 194 184 195 210 197 203 232 239 237 233 233 233 240 245 248 263 254 245 254 254 242 245 249 246 249 257 258 263 269 268 268 271 274 273 273 277
160 249 260 226 232 264 93 97 38 331 149 151 236 273 268 142 138 96 153 171 176 166 147 147 153 150 156 172 164 131 103 88 96 103 89 88 82 72 65 63 68 69 70 75 85 95 98 106 113 117 124 137 148 153 157 158 159 163 166 162 162 169 164 162 168 149 122 122 99 135 168 229 237 241 246 247 259 260 253 253 252 240 241 251 252 255 262 259 259 264 266 268 274 276 275 277 281
190 203 256 254 234 261 273 143 99 3 237 224 236 265 272 135 129 97 145 163 162 145 135 136 147 153 158 160 152 154 157 160 161 146 123 105 93 88 83 82 85 85 88 92 93 99 103 108 113 116 121 125 133 142 148 153 155 155 156 158 156 157 155 138 127 119 119 124 89 81 82 56 47 44 259 233 258 268 262 256 258 257 254 257 264 272 276 269 266 270 274 274 274 276 277 281 285
214 191 232 252 229 238 251 225 123 74 237 237 208 245 259 160 137 120 145 161 157 140 140 143 147 155 157 154 156 159 163 167 162 143 123 108 96 95 96 96 100 101 102 103 99 102 107 104 102 106 114 119 121 125 134 144 150 151 148 152 155 144 130 121 128 120 73 50 38 26 16 10 11 19 33 42 2 332 324 309 296 287 282 285 291 298 299 292 287 288 290 285 281 281 283 286 290
206 188 237 259 252 251 245 176 76 15 255 247 240 251 262 225 153 138 142 147 147 145 146 155 159 161 162 159 161 160 161 160 151 137 120 113 110 108 114 116 113 111 109 108 106 107 106 101 104 109 108 107 108 111 118 125 133 137 132 136 140 123 110 113 115 93 46 31 36 39 23 14 11 5 8 12 2 353 347 337 327 318 313 310 306 302 301 299 300 302 302 298 296 296 296 297 298
151 189 236 250 256 267 257 120 97 29 263 251 245 257 265 256 159 132 150 152 153 161 165 173 170 168 167 163 163 160 160 155 142 134 128 122 122 119 123 124 118 118 116 113 112 110 108 108 112 113 108 107 111 118 123 122 122 125 128 132 132 123 118 114 91 68 62 44 36 31 14 11 19 16 9 7 358 345 333 324 311 300 291 291 294 294 293 292 293 297 299 301 300 299 299 299 300
211 233 240 246 244 261 270 112 115 159 246 250 224 251 259 251 140 119 162 174 171 179 183 182 173 168 165 161 164 160 154 148 138 134 133 129 129 128 127 126 123 123 121 119 116 113 114 116 115 113 114 119 122 123 126 125 125 127 130 132 130 129 123 110 108 102 84 53 4 350 344 345 350 353 352 349 345 338 331 328 320 311 307 308 309 307 303 300 298 300 300 302 302 303 305 305 307
221 229 243 253 243 261 270 137 122 175 229 246 194 248 260 243 118 118 161 175 169 178 189 183 170 163 163 160 159 157 148 141 138 137 134 131 129 131 131 131 131 129 125 124 121 120 122 120 114 114 119 125 122 122 128 129 129 128 124 119 117 120 115 109 116 106 77 64 51 41 45 42 26 18 17 13 15 20 19 16 15 7 354 345 339 330 323 317 316 317 317 319 320 320 319 316 317
222 219 233 246 220 233 257 160 114 173 233 294 291 268 265 228 148 138 141 149 145 152 174 176 173 169 169 169 162 157 152 145 143 140 136 133 131 132 134 132 130 128 124 124 123 124 123 117 111 109 109 110 108 109 113 112 110 110 110 109 108 107 103 102 100 93 84 80 78 76 72 69 65 60 60 58 54 52 49 47 43 37 31 27 23 13 8 6 3 360 357 1 358 349 342 336 334
220 216 229 244 225 223 246 74 94 210 212 235 266 278 266 220 203 189 137 152 160 160 172 171 175 177 171 168 164 159 155 149 145 142 137 133 131 130 129 126 124 123 121 119 120 119 115 111 106 103 101 99 97 95 95 96 96 97 100 102 102 99 98 99 97 93 90 86 81 77 73 71 68 65 65 61 59 57 54 52 50 48 48 46 44 40 39 38 34 31 27 26 24 19 12 2 356
227 215 222 239 243 231 224 133 179 258 237 190 218 262 256 176 209 205 150 171 179 175 191 184 177 177 170 165 164 159 153 149 144 141 138 133 130 127 124 122 121 120 119 118 116 113 109 106 103 101 98 95 93 90 87 88 89 90 91 94 96 98 101 103 99 95 92 85 79 75 72 70 66 64 64 61 59 57 54 52 50 48 47 46 46 44 44 44 40 38 36 33 31 30 28 23 16
248 216 215 230 240 229 196 179 197 252 266 102 207 255 253 176 196 178 159 187 186 183 202 196 186 182 176 171 166 159 152 148 144 140 138 134 131 128 124 123 121 118 116 114 112 109 106 103 101 99 96 94 93 92 90 89 89 90 91 95 101 104 105 103 99 96 93 88 83 80 76 71 66 63 61 59 56 53 51 48 44 43 41 39 39 37 35 35 33 32 32 30 30 28 26 25 24
244 69 190 201 207 206 196 192 205 245 316 119 205 247 274 254 190 132 156 190 198 201 208 200 192 187 181 177 169 161 154 148 144 141 139 136 132 129 127 124 121 118 115 113 110 108 106 104 102 101 99 97 97 97 98 97 96 100 103 105 108 106 101 100 98 95 92 90 87 82 77 72 67 61 59 56 53 50 46 42 38 35 33 30 29 27 27 27 25 22 21 19 18 17 15 16 15
280 72 100 144 172 190 181 191 214 249 302 235 204 177 259 255 192 123 161 207 221 206 201 197 189 185 183 180 173 163 155 150 146 143 140 138 135 132 129 125 122 120 117 115 113 111 110 109 108 107 105 103 102 103 105 108 110 113 115 113 110 105 101 100 99 96 93 91 87 83 77 72 67 60 56 52 48 44 39 34 30 23 21 19 18 18 19 17 15 12 11 10 11 9 9 9 7
131 123 99 93 86 100 138 198 198 166 241 242 204 175 226 262 192 164 177 233 230 197 191 191 182 182 184 181 176 165 158 153 149 145 143 141 138 134 131 128 125 123 121 119 117 115 114 114 114 113 110 108 109 113 117 121 124 123 119 114 108 106 104 103 102 99 94 91 86 81 74 67 61 54 48 42 36 33 29 24 20 16 13 12 10 10 8 7 6 5 6 6 6 5 4 4 3
139 140 109 99 88 90 109 167 151 209 238 237 194 181 217 260 208 195 196 230 207 172 174 177 174 180 185 183 178 169 161 156 152 149 147 144 140 137 135 132 130 129 127 124 122 120 119 118 121 121 117 117 120 125 130 130 128 124 120 116 109 106 106 107 106 100 94 90 82 74 66 57 49 42 36 30 24 21 18 14 11 10 7 5 3 3 2 1 1 0 1 1 359 359 360 358 358
155 158 136 129 117 133 156 141 176 243 236 187 81 177 219 236 221 197 173 122 152 172 174 171 173 181 184 184 180 172 165 160 156 154 151 147 144 142 140 138 137 135 133 131 129 128 127 126 132 133 126 127 131 133 136 136 133 128 124 121 114 110 110 109 106 102 96 87 75 66 57 48 39 31 25 19 15 12 9 6 3 0 358 356 356 356 356 355 354 354 353 352 352 352 351 350 350
204 167 164 182 176 172 213 192 197 244 234 67 28 185 223 240 245 236 170 157 173 182 172 172 174 178 182 184 181 174 169 164 161 159 155 152 150 148 146 145 144 142 140 140 139 139 139 137 144 147 133 133 138 140 143 141 137 132 127 123 118 116 117 114 109 103 95 83 72 62 49 40 28 18 13 7 4 3 360 356 353 350 348 347 346 346 345 343 342 342 341 341 342 341 340 340 340
195 179 179 194 179 186 217 195 224 261 217 57 9 206 224 247 258 260 158 128 122 94 127 174 174 176 181 182 180 176 172 169 167 163 159 157 155 154 153 151 150 150 149 150 150 151 153 149 154 162 147 144 148 149 150 149 142 137 132 128 124 122 121 116 108 97 86 74 62 46 30 22 12 4 1 358 356 354 351 347 345 343 341 340 339 337 335 333 332 331 331 332 331 331 332 331 331
191 186 191 206 192 211 221 199 233 259 116 103 117 198 208 195 169 1 36 60 71 96 152 172 173 176 181 182 181 178 176 175 172 167 163 162 160 159 158 157 157 157 158 159 160 162 166 164 165 175 168 158 161 162 160 158 152 144 140 136 130 126 119 108 99 85 70 51 34 21 12 6 1 357 354 350 348 345 342 340 338 336 334 333 332 331 329 328 327 326 326 326 326 326 325 325 324
183 76 210 234 223 193 178 302 8 66 66 184 180 231 246 199 124 82 46 42 83 109 158 173 176 179 182 184 184 183 181 180 176 171 168 167 166 165 164 163 163 164 166 168 170 172 177 179 176 182 183 174 172 172 169 166 161 153 147 142 135 128 117 104 86 65 46 27 15 6 360 355 350 346 342 337 335 333 331 329 328 326 326 325 324 324 324 323 324 324 324 325 325 324 324 324 323
147 176 196 209 344 95 129 187 71 75 266 221 171 228 254 196 202 136 115 147 161 160 178 182 181 182 185 189 189 188 186 184 179 175 173 172 171 170 169 169 169 171 173 175 178 180 184 189 189 190 191 184 179 176 173 169 165 160 155 148 142 132 119 102 77 48 22 10 1 353 348 343 338 334 331 328 326 325 324 323 321 320 318 317 317 317 318 319 319 320 321 322 322 323 323 323 322
140 188 186 135 18 351 194 238 153 182 253 249 178 222 217 186 209 136 148 192 194 187 186 185 185 187 192 195 194 192 189 186 183 179 177 176 176 176 175 175 175 177 179 182 184 186 188 194 199 200 198 191 184 180 177 174 170 166 161 154 148 143 136 125 84 31 10 1 350 343 338 334 332 329 327 326 326 325 325 323 321 320 318 318 318 318 317 318 319 319 320 320 320 321 321 321 321
100 189 158 122 222 204 176 222 226 200 241 253 189 218 225 204 198 165 186 202 197 185 179 184 192 195 198 199 197 195 192 189 186 183 182 181 181 181 180 180 181 183 185 186 188 190 193 196 199 200 199 194 189 185 182 179 175 171 169 165 163 162 163 163 125 2 350 345 338 335 334 332 332 330 330 331 329 328 327 325 324 323 323 322 321 321 321 321 321 321 321 321 320 321 320 321 320
14 145 157 267 267 217 170 185 212 214 237 254 209 206 216 207 196 184 194 200 186 175 178 195 201 199 198 198 197 196 195 192 189 187 186 185 185 185 184 185 187 188 189 190 191 194 198 200 201 200 199 195 190 188 188 186 181 178 178 177 178 179 179 190 273 325 333 336 334 333 333 332 332 331 331 331 330 330 329 327 327 325 324 324 323 322 322 321 321 321 321 321 321 321 321 321 321
173 179 177 186 197 52 254 215 145 226 240 241 253 258 206 178 193 191 194 195 177 175 184 197 201 200 199 198 197 197 195 194 192 190 189 188 187 187 188 189 191 192 192 192 194 198 202 203 204 202 200 198 195 194 194 192 188 186 187 187 187 192 202 242 301 326 333 333 332 331 331 331 331 330 330 330 330 330 329 327 327 325 324 323 321 321 320 320 320 319 320 320 320 321 321 321 321
185 192 185 183 174 152 205 219 164 202 252 226 255 275 236 148 137 209 184 284 184 188 194 194 195 198 200 200 200 198 197 196 195 193 192 191 189 189 191 193 195 194 194 195 198 202 204 205 205 203 201 200 202 202 199 196 195 193 194 194 196 209 235 282 319 331 333 332 330 330 329 327 327 326 326 327 326 326 325 324 323 322 321 320 319 319 318 319 319 319 320 320 320 321 321 321 321